Weather History for Alpine, TX

Change the Weather History Date:

Friday, January 13, 2012

  Actual Average (KMRF) Record (KMRF)
Temperature  
Mean Temperature 36 °F -  
Max Temperature 47 °F 56 °F 66 °F (2000)
Min Temperature 25 °F 25 °F 10 °F (2011)
Degree Days  
Heating Degree Days 29    
Moisture  
Dew Point 13 °F    
Average Humidity 41    
Maximum Humidity 63    
Minimum Humidity 25    
Precipitation  
Precipitation 0.00 in - - ()
Sea Level Pressure  
Sea Level Pressure 30.24 in    
Wind  
Wind Speed 4 mph (SSW)    
Max Wind Speed 13 mph    
Max Gust Speed -    
Visibility 10 miles    
Events      
Averages and records for this station are not official NWS values.
T = Trace of Precipitation, MM = Missing Value Source: NWS Daily Summary

Daily Weather History Graph

Daily Weather History Graph

Search for Another Location

Airport:

Trip Planner

Search our weather history database for the weather conditions in past years. The results will help you decide how hot, cold, wet, or windy it might be!

Date:

Astronomy

Jan. 13, 2012 Rise Set
Actual Time 7:52 AM CST 6:14 PM CST
Civil Twilight 7:26 AM CST 6:40 PM CST
Nautical Twilight 6:56 AM CST 7:10 PM CST
Astronomical Twilight 6:27 AM CST 7:39 PM CST
Moon 11:03 PM CST (1/13) 10:31 AM CST (1/13)
Length of Visible Light 11h 14m
Length of Day
10h 21m
Waning Gibbous, 78% of the Moon is Illuminated
Jan 13
Waning Gibbous
Jan 16
Last Quarter
Jan 23
New
Jan 30
First Quarter
Feb 7
Full

Hourly Weather History & Observations

Time (CST) Temp. Windchill Dew Point Humidity Pressure Visibility Wind Dir Wind Speed Gust Speed Precip Events Conditions
12:15 AM 30.2 °F - 5.5 °F 35% 30.23 in 10.0 mi Calm Calm - N/A   Scattered Clouds
12:35 AM 28.9 °F 25.2 °F 2.3 °F 32% 30.23 in 10.0 mi South 3.5 mph - N/A   Scattered Clouds
12:55 AM 27.5 °F 22.2 °F 10.6 °F 49% 30.22 in 10.0 mi SSE 4.6 mph - N/A   Clear
1:15 AM 25.5 °F 18.7 °F 14.4 °F 63% 30.20 in 10.0 mi SSE 5.8 mph - N/A   Clear
1:35 AM 25.5 °F - 13.8 °F 61% 30.20 in 10.0 mi Calm Calm - N/A   Clear
1:55 AM 25.7 °F 20.1 °F 12.6 °F 58% 30.19 in 10.0 mi SSW 4.6 mph - N/A   Clear
2:15 AM 27.3 °F 19.1 °F 8.6 °F 45% 30.18 in 10.0 mi SSW 8.1 mph - N/A   Clear
2:35 AM 29.3 °F 23.2 °F 4.6 °F 35% 30.18 in 10.0 mi South 5.8 mph - N/A   Clear
2:55 AM 30.2 °F 24.3 °F 6.3 °F 36% 30.18 in 10.0 mi South 5.8 mph - N/A   Scattered Clouds
3:15 AM 30.2 °F - 7.0 °F 38% 30.18 in 10.0 mi Calm Calm - N/A   Scattered Clouds
3:35 AM 30.2 °F 26.7 °F 7.2 °F 38% 30.17 in 10.0 mi WSW 3.5 mph - N/A   Clear
3:55 AM 30.2 °F 24.3 °F 9.3 °F 42% 30.18 in 10.0 mi SW 5.8 mph - N/A   Clear
4:15 AM 30.2 °F 24.3 °F 10.6 °F 44% 30.19 in 10.0 mi NNW 5.8 mph - N/A   Clear
4:35 AM 28.6 °F 24.8 °F 10.2 °F 46% 30.20 in 10.0 mi NNW 3.5 mph - N/A   Clear
4:55 AM 27.9 °F - 10.9 °F 49% 30.20 in 10.0 mi Calm Calm - N/A   Clear
5:15 AM 27.9 °F - 11.3 °F 50% 30.21 in 10.0 mi Calm Calm - N/A   Clear
5:35 AM 27.9 °F - 11.3 °F 50% 30.22 in 10.0 mi Calm Calm - N/A   Clear
5:55 AM 27.9 °F - 9.9 °F 47% 30.22 in 10.0 mi Calm Calm - N/A   Clear
6:15 AM 27.7 °F - 10.9 °F 50% 30.22 in 10.0 mi Calm Calm - N/A   Clear
6:55 AM 26.4 °F - 12.7 °F 56% 30.24 in 10.0 mi Calm Calm - N/A   Scattered Clouds
7:15 AM 26.4 °F - 12.7 °F 56% 30.24 in 10.0 mi Calm Calm - N/A   Clear
7:35 AM 25.9 °F - 12.7 °F 58% 30.25 in 10.0 mi Calm Calm - N/A   Clear
8:15 AM 27.9 °F 20.6 °F 12.0 °F 52% 30.24 in 10.0 mi SW 6.9 mph - N/A   Clear
8:35 AM 29.1 °F 22.1 °F 12.6 °F 50% 30.25 in 10.0 mi SW 6.9 mph - N/A   Clear
8:55 AM 30.2 °F 26.7 °F 12.6 °F 48% 30.26 in 10.0 mi SSW 3.5 mph - N/A   Clear
9:15 AM 30.6 °F 21.8 °F 12.0 °F 46% 30.26 in 10.0 mi SW 10.4 mph - N/A   Clear
9:35 AM 32.5 °F 28.1 °F 14.7 °F 48% 30.27 in 10.0 mi WSW 4.6 mph - N/A   Clear
9:55 AM 34.5 °F 26.7 °F 17.1 °F 49% 30.28 in 10.0 mi West 10.4 mph - N/A   Clear
10:15 AM 34.2 °F 30.0 °F 15.3 °F 46% 30.29 in 10.0 mi NW 4.6 mph - N/A   Clear
10:35 AM 34.9 °F 28.3 °F 15.4 °F 45% 30.30 in 10.0 mi West 8.1 mph - N/A   Clear
10:55 AM 35.8 °F 28.3 °F 16.2 °F 45% 30.30 in 10.0 mi WSW 10.4 mph - N/A   Clear
11:15 AM 36.9 °F 31.4 °F 16.2 °F 43% 30.30 in 10.0 mi SW 6.9 mph - N/A   Clear
11:35 AM 38.7 °F 32.4 °F 16.7 °F 41% 30.28 in 10.0 mi SW 9.2 mph - N/A   Clear
11:55 AM 41.2 °F 36.6 °F 17.4 °F 38% 30.28 in 10.0 mi West 6.9 mph - N/A   Clear
12:15 PM 43.9 °F 38.8 °F 18.7 °F 37% 30.27 in 10.0 mi WNW 9.2 mph - N/A   Clear
12:35 PM 45.0 °F 42.6 °F 18.7 °F 35% 30.27 in 10.0 mi West 4.6 mph - N/A   Clear
1:15 PM 45.0 °F 41.2 °F 17.2 °F 33% 30.25 in 10.0 mi NE 6.9 mph - N/A   Clear
1:35 PM 45.7 °F - 16.2 °F 31% 30.25 in 10.0 mi Calm Calm - N/A   Clear
1:55 PM 45.7 °F 41.5 °F 16.2 °F 31% 30.24 in 10.0 mi North 8.1 mph - N/A   Clear
2:15 PM 46.6 °F - 17.1 °F 31% 30.24 in 10.0 mi ENE 6.9 mph - N/A   Clear
2:35 PM 47.3 °F - 17.8 °F 31% 30.24 in 10.0 mi NNE 10.4 mph - N/A   Clear
2:55 PM 47.5 °F - 18.0 °F 31% 30.24 in 10.0 mi NE 12.7 mph - N/A   Clear
3:15 PM 47.3 °F - 17.2 °F 30% 30.24 in 10.0 mi East 10.4 mph - N/A   Clear
3:35 PM 47.5 °F - 16.3 °F 29% 30.24 in 10.0 mi ENE 9.2 mph - N/A   Clear
3:55 PM 47.5 °F - 14.9 °F 27% 30.25 in 10.0 mi NE 8.1 mph - N/A   Clear
4:15 PM 47.5 °F - 13.3 °F 25% 30.25 in 10.0 mi NE 9.2 mph - N/A   Clear
4:35 PM 46.6 °F - 13.5 °F 26% 30.26 in 10.0 mi ENE 8.1 mph - N/A   Clear
4:55 PM 45.7 °F 42.0 °F 13.5 °F 27% 30.26 in 10.0 mi East 6.9 mph - N/A   Clear
5:15 PM 45.0 °F 41.8 °F 13.5 °F 28% 30.26 in 10.0 mi ENE 5.8 mph - N/A   Clear
5:35 PM 45.0 °F 41.8 °F 13.8 °F 29% 30.27 in 10.0 mi NE 5.8 mph - N/A   Clear
5:55 PM 45.0 °F 43.5 °F 14.5 °F 29% 30.28 in 7.0 mi East 3.5 mph - N/A   Clear
6:15 PM 42.8 °F 41.1 °F 14.0 °F 31% 30.28 in 10.0 mi East 3.5 mph - N/A   Clear
6:35 PM 39.9 °F 37.8 °F 12.7 °F 33% 30.29 in 10.0 mi East 3.5 mph - N/A   Clear
6:55 PM 38.3 °F - 12.2 °F 34% 30.30 in 10.0 mi Calm Calm - N/A   Clear
7:15 PM 32.5 °F - 12.6 °F 44% 30.30 in 10.0 mi Calm Calm - N/A   Clear
7:35 PM 30.7 °F - 13.1 °F 48% 30.31 in 10.0 mi Calm Calm - N/A   Clear
7:55 PM 31.3 °F 25.6 °F 12.9 °F 47% 30.31 in 10.0 mi WSW 5.8 mph - N/A   Clear
8:15 PM 29.1 °F 23.0 °F 12.7 °F 50% 30.32 in 10.0 mi West 5.8 mph - N/A   Clear
8:55 PM 25.3 °F 16.7 °F 13.5 °F 61% 30.33 in 10.0 mi WSW 8.1 mph - N/A   Clear
9:15 PM 25.0 °F 18.1 °F 13.5 °F 62% 30.34 in 10.0 mi SW 5.8 mph - N/A   Clear
9:35 PM 23.4 °F 18.9 °F 12.6 °F 63% 30.34 in 10.0 mi SW 3.5 mph - N/A   Clear
10:15 PM 21.9 °F 12.5 °F 12.4 °F 67% 30.34 in 10.0 mi SW 8.1 mph - N/A   Clear
10:35 PM 22.6 °F 15.3 °F 13.1 °F 67% 30.34 in 10.0 mi SSW 5.8 mph - N/A   Clear
10:55 PM 21.9 °F 13.4 °F 12.9 °F 68% 30.34 in 10.0 mi WSW 6.9 mph - N/A   Clear
11:15 PM 23.2 °F 12.0 °F 14.0 °F 68% 30.34 in 10.0 mi SW 11.5 mph - N/A   Clear
11:35 PM 24.6 °F 14.4 °F 14.2 °F 65% 30.34 in 10.0 mi WSW 10.4 mph - N/A   Clear
11:55 PM 25.5 °F 16.9 °F 14.5 °F 63% 30.35 in 10.0 mi SW 8.1 mph - N/A   Clear